Orbital Elements at Epoch 2459200.5 (2020-Dec-17.0) TDB
Reference: JPL 22 (heliocentric ecliptic J2000)
Element | Value | Uncertainty (1-sigma) | Units |
e | .1852460134408611 | 3.6315e-08 | |
a | 2.3224451376908 | 8.6744e-09 | au |
q | 1.892221434498467 | 8.4689e-08 | au |
i | 4.936064180407981 | 3.5278e-06 | deg |
node | 255.5293301087954 | 5.0146e-05 | deg |
peri | 74.88062994107712 | 5.1496e-05 | deg |
M | 143.1386682604335 | 1.04e-05 | deg |
tp | 2458686.490561511818 (2019-Jul-21.99056151) | 3.7109e-05 | TDB |
period | 1292.75617905756 3.54 | 7.2428e-06 1.983e-08 | d yr |
n | .2784747857577024 | 1.5602e-09 | deg/d |
Q | 2.752668840883132 | 1.0281e-08 | au |
|
| | Orbit Determination Parameters
Additional Information
|